Location: Pebble Beach Sunset Acres
(33.0837°N, 96.4508°W)
Time: 01:10:04
(UTC+00:00)

Sich 1 - Pass Details

Date: 28 June 2022
Orbit: 593 x 622 km, 82.5° (Epoch: 16 August)

Event Time Altitude Azimuth Distance (km) Brightness Sun altitude
Rises 09:14:42 0° 135° (SE) 2,863 6.4 -21.2°
Reaches altitude 10° 09:19:19 10° 90° (E) 1,956 6.2 -20.6°
Maximum altitude 09:19:39 10° 85° (E) 1,951 6.2 -20.5°
Drops below altitude 10° 09:19:59 10° 81° (E) 1,956 6.3 -20.5°
Sets 09:24:34 0° 36° (NE) 2,857 8.1 -19.8°
